Regional Weather Roundup
Issued by NWS Little Rock, AR

Home | Current Version | Previous Version | Graphics & Text | Print | Product List | Glossary On
Versions: 1 2 3 4 5 6 7 8 9 10 11 12 13 14 15 16 17 18 19 20 21 22 23 24 25 26 27 28 29 30 31 32 33 34 35 36 37 38 39 40 41 42 43 44 45 46 47 48 49 50
000
ASUS44 KLZK 232005
RWRLZK

WEATHER ROUNDUP FOR ARKANSAS
NATIONAL WEATHER SERVICE LITTLE ROCK AR
300 PM CDT SAT AUG 23 2014

NOTE: "FAIR" INDICATES FEW OR NO CLOUDS BELOW 12,000 FEET WITH NO
SIGNIFICANT WEATHER AND/OR OBSTRUCTIONS TO VISIBILITY.

ARZ001-003-010-029-232100-
NORTHWEST ARKANSAS

CITY           SKY/WX    TMP DP  RH WIND       PRES   REMARKS
FAYETTEVILLE   SUNNY     94  64  37 SW10      29.99F HX  95
FORT SMITH     SUNNY     97  69  40 S6        29.94F HX 103
HARRISON       MOSUNNY   94  71  47 S13       29.99F HX 101
BENTONVILLE    SUNNY     95  68  41 W12G17    30.01F HX  99
ROGERS         SUNNY     96  65  35 S9G17     30.00F HX  98
SILOAM SPGS    SUNNY     93  70  46 SW9       30.00F HX  99
HIGHFILL       SUNNY     95  66  38 SW9       29.99F HX  98
SPRINGDALE     MOSUNNY   95  64  36 SW7       30.01F HX  97
$$

ARZ004-005-016-232100-
NORTH CENTRAL ARKANSAS

CITY           SKY/WX    TMP DP  RH WIND       PRES   REMARKS
BATESVILLE     SUNNY    100  64  30 SW9       29.93F HX 103
FLIPPIN          N/A     99  61  28 S9        29.95F HX  99
MTN HOME       SUNNY    100  62  28 CALM      29.95F HX 101
$$

ARZ040-041-232100-
WEST CENTRAL ARKANSAS

CITY           SKY/WX    TMP DP  RH WIND       PRES   REMARKS
MENA           SUNNY     95  73  49 CALM      30.01F HX 105
MOUNT IDA      MOSUNNY   93  71  48 VRB3      29.98F HX 100
$$

ARZ009-017-025-026-028-232100-
NORTHEAST ARKANSAS

CITY           SKY/WX    TMP DP  RH WIND       PRES   REMARKS
CORNING        LGT RAIN  95  73  49 SE10      29.93F HX 105
JONESBORO      CLOUDY    94  75  54 S8        29.93F HX 105
NEWPORT        SUNNY     98  70  40 S3        29.95F HX 105
WALNUT RIDGE   SUNNY     91  70  49 SE8       29.92F HX  97
BLYTHEVILLE    SUNNY     94  80  64 SE5       29.95F HX 113
$$

ARZ022-023-033-042-044-232100-
CENTRAL ARKANSAS

CITY           SKY/WX    TMP DP  RH WIND       PRES   REMARKS
LITTLE ROCK    MOSUNNY   95  73  48 S10       29.95F HX 104
N LITTLE ROCK  MOSUNNY   94  73  51 SE5       29.95F HX 103
JACKSONVILLE   SUNNY     96  72  45 VRB2      29.96F HX 105
SEARCY           N/A     98  76  49 CALM        N/A  HX 111
HOT SPRINGS    SUNNY     95  69  42 VRB7      29.98F HX 100
RUSSELLVILLE   SUNNY     95  73  48 SW5       29.96F HX 104
CLINTON        FAIR     100  70  37 SW3       29.94F HX 107
$$

ARZ036-232100-
EAST ARKANSAS

CITY           SKY/WX    TMP DP  RH WIND       PRES   REMARKS
WEST MEMPHIS   SUNNY     96  73  47 SW5       29.94F HX 105
$$

ARZ050-053-066-070-073-232100-
SOUTHWEST ARKANSAS

CITY           SKY/WX    TMP DP  RH WIND       PRES   REMARKS
ARKADELPHIA    FAIR      95  78  57 SW6       29.98F HX 111
CAMDEN         SUNNY     95  70  43 N5        29.98F HX 101
TEXARKANA      SUNNY     95  67  39 SW5       29.98F HX  99
EL DORADO      SUNNY     92  70  48 VRB7      30.00F HX  97
DE QUEEN       SUNNY     92  75  57 SE6       29.96F HX 103
$$

ARZ056-057-069-232100-
SOUTHEAST ARKANSAS

CITY           SKY/WX    TMP DP  RH WIND       PRES   REMARKS
PINE BLUFF     SUNNY     93  74  53 SW8       29.97F HX 103
STUTTGART      SUNNY     97  75  49 SW8       29.98F HX 109
MONTICELLO     SUNNY     94  72  48 CALM      29.98F HX 102

$$





USA.gov is the U.S. government's official web portal to all federal, state and local government web resources and services.